WA2QAO Weather Reports


Display with metric or nautical units.
time (UTC)temp
F
wind
direction
speed
MPH
gust
MPH
rain 1hr
in
rain 24hr
in
rain mn
in
humidity
%
barometer
mb
20260506211650 0 330 0.0 1.0 0.00 0.00 0.00 1020.0
20260506211147 0 335 1.0 2.0 0.00 0.00 0.00 1019.7
20260506210644 0 334 0.0 1.0 0.00 0.00 0.00 1019.9
20260506210140 0 334 0.0 3.0 0.00 0.00 0.00 1019.9
20260506205638 0 335 0.0 1.0 0.00 0.00 0.00 1019.7
20260506205132 0 336 0.0 1.0 0.00 0.00 0.00 1019.9
20260506204631 0 333 0.0 2.0 0.00 0.00 0.00 1019.7
20260506204127 0 320 0.0 2.0 0.00 0.00 0.00 1019.8
20260506203626 0 335 2.0 2.0 0.00 0.00 0.00 1019.9
20260506203122 0 329 2.0 3.0 0.00 0.00 0.00 1019.6
20260506202620 0 336 0.0 0.0 0.00 0.00 0.00 1019.5
20260506202116 0 325 0.0 2.0 0.00 0.00 0.00 1019.6
20260506201613 0 334 0.0 5.0 0.00 0.00 0.00 1019.6
20260506201109 0 328 2.0 5.0 0.00 0.00 0.00 1019.5
20260506200606 0 330 1.0 3.0 0.00 0.00 0.00 1019.6
20260506195559 0 335 0.0 0.0 0.00 0.00 0.00 1019.5
20260506195056 0 334 3.0 5.0 0.00 0.00 0.00 1019.5
20260506194554 0 326 1.0 6.0 0.00 0.00 0.00 1019.3
20260506194049 0 323 0.0 1.0 0.00 0.00 0.00 1019.3
20260506193547 0 335 0.0 5.0 0.00 0.00 0.00 1019.4
20260506193045 0 335 0.0 1.0 0.00 0.00 0.00 1019.3
20260506192541 0 334 0.0 3.0 0.00 0.00 0.00 1019.4
20260506192037 0 328 2.0 2.0 0.00 0.00 0.00 1019.2
20260506191534 0 329 3.0 3.0 0.00 0.00 0.00 1019.4
20260506191030 0 330 0.0 2.0 0.00 0.00 0.00 1019.1
20260506190527 0 330 0.0 0.0 0.00 0.00 0.00 1019.4
20260506190024 0 315 4.0 6.0 0.00 0.00 0.00 1019.1
20260506185521 0 333 0.0 0.0 0.00 0.00 0.00 1019.3
20260506185018 0 334 1.0 3.0 0.00 0.00 0.00 1019.2
20260506184515 0 334 0.0 1.0 0.00 0.00 0.00 1019.1
20260506184012 0 329 0.0 2.0 0.00 0.00 0.00 1019.0
20260506183508 0 338 0.0 2.0 0.00 0.00 0.00 1019.0
20260506183006 0 334 0.0 2.0 0.00 0.00 0.00 1018.9
20260506182502 0 332 0.0 5.0 0.00 0.00 0.00 1019.0
20260506181959 0 332 3.0 5.0 0.00 0.00 0.00 1019.0
20260506181457 0 335 0.0 2.0 0.00 0.00 0.00 1019.1
20260506180954 0 278 3.0 5.0 0.00 0.00 0.00 1019.1
20260506180450 0 309 0.0 0.0 0.00 0.00 0.00 1019.0
20260506175947 0 323 2.0 3.0 0.00 0.00 0.00 1019.0
20260506175444 0 335 0.0 5.0 0.00 0.00 0.00 1019.0
20260506174940 0 328 0.0 2.0 0.00 0.00 0.00 1018.9
20260506174438 0 335 0.0 6.0 0.00 0.00 0.00 1018.8
20260506173934 0 329 1.0 2.0 0.00 0.00 0.00 1019.0
20260506173432 0 332 2.0 3.0 0.00 0.00 0.00 1018.9
20260506172923 0 334 1.0 3.0 0.00 0.00 0.00 1018.9
20260506172420 0 326 0.0 0.0 0.00 0.00 0.00 1018.8
20260506171917 0 332 1.0 5.0 0.00 0.00 0.00 1018.5
20260506171414 0 334 3.0 3.0 0.00 0.00 0.00 1018.8
20260506170912 0 309 2.0 5.0 0.00 0.00 0.00 1018.6
20260506170407 0 334 1.0 5.0 0.00 0.00 0.00 1018.6
20260506165901 0 319 3.0 6.0 0.00 0.00 0.00 1018.5
20260506165359 0 330 0.0 2.0 0.00 0.00 0.00 1018.6
20260506164855 0 335 4.0 6.0 0.00 0.00 0.00 1018.8
20260506164352 0 308 3.0 5.0 0.00 0.00 0.00 1018.7
20260506163850 0 333 0.0 6.0 0.00 0.00 0.00 1018.7
20260506163344 0 334 0.0 0.0 0.00 0.00 0.00 1018.4
20260506162839 0 335 0.0 0.0 0.00 0.00 0.00 1018.6
20260506162337 0 312 0.0 1.0 0.00 0.00 0.00 1018.4
20260506161829 0 333 0.0 2.0 0.00 0.00 0.00 1018.4
20260506161326 0 332 0.0 1.0 0.00 0.00 0.00 1018.3
20260506160824 0 335 0.0 0.0 0.00 0.00 0.00 1018.4
20260506160320 0 332 0.0 0.0 0.00 0.00 0.00 1018.4
20260506155819 0 334 0.0 1.0 0.00 0.00 0.00 1018.4
20260506155315 0 334 0.0 1.0 0.00 0.00 0.00 1018.4
20260506153427 0 302 1.0 2.0 0.00 0.00 0.00 1018.2
20260506152925 0 334 0.0 0.0 0.00 0.00 0.00 1018.0
20260506152421 0 328 0.0 0.0 0.00 0.00 0.00 1017.8
20260506151920 0 336 0.0 2.0 0.00 0.00 0.00 1017.8
20260506151417 0 335 0.0 0.0 0.00 0.00 0.00 1017.8
20260506150914 0 335 0.0 0.0 0.00 0.00 0.00 1017.7
20260506150410 0 296 0.0 0.0 0.00 0.00 0.00 1017.8
20260506145908 0 335 0.0 0.0 0.00 0.00 0.00 1017.7
20260506145403 0 335 0.0 0.0 0.00 0.00 0.00 1017.4
20260506144901 0 336 0.0 0.0 0.00 0.00 0.00 1017.5
20260506144357 0 335 0.0 0.0 0.00 0.00 0.00 1017.7
20260506143856 0 335 0.0 0.0 0.00 0.00 0.00 1017.9
20260506143353 0 330 0.0 0.0 0.00 0.00 0.00 1017.8
20260506142851 0 324 0.0 0.0 0.00 0.00 0.00 1017.9
20260506142349 0 335 0.0 0.0 0.00 0.00 0.00 1017.8
20260506141847 0 330 0.0 0.0 0.00 0.00 0.00 1017.8
20260506141344 0 335 0.0 0.0 0.00 0.00 0.00 1017.4
20260506140842 0 335 0.0 0.0 0.00 0.00 0.00 1017.3
20260506140339 0 335 0.0 0.0 0.00 0.00 0.00 1016.9
20260506135836 0 336 0.0 0.0 0.00 0.00 0.00 1016.7
20260506135333 0 336 0.0 0.0 0.00 0.00 0.00 1017.0
20260506134829 0 337 0.0 0.0 0.00 0.00 0.00 1017.0
20260506134325 0 333 0.0 0.0 0.00 0.00 0.00 1017.1
20260506133823 0 335 0.0 0.0 0.00 0.00 0.00 1017.0
20260506133319 0 334 0.0 0.0 0.00 0.00 0.00 1016.7
20260506132816 0 334 0.0 0.0 0.00 0.00 0.00 1017.3
20260506132313 0 333 0.0 0.0 0.00 0.00 0.00 1017.4
20260506131811 0 318 0.0 1.0 0.00 0.00 0.00 1017.2
20260506131307 0 332 0.0 2.0 0.00 0.00 0.00 1017.3
20260506130804 0 335 0.0 0.0 0.00 0.00 0.00 1017.1
20260506130301 0 334 0.0 0.0 0.00 0.00 0.00 1016.9
20260506125759 0 334 0.0 0.0 0.00 0.00 0.00 1017.1
20260506125257 0 318 0.0 1.0 0.00 0.00 0.00 1017.0
20260506124755 0 328 1.0 2.0 0.00 0.00 0.00 1017.2
20260506124252 0 333 0.0 0.0 0.00 0.00 0.00 1017.3
20260506123749 0 335 0.0 0.0 0.00 0.00 0.00 1017.3
20260506123248 0 335 0.0 2.0 0.00 0.00 0.00 1017.2
20260506122744 0 330 0.0 0.0 0.00 0.00 0.00 1017.1
20260506122241 0 335 0.0 0.0 0.00 0.00 0.00 1016.8
20260506121740 0 335 0.0 0.0 0.00 0.00 0.00 1016.6
20260506121236 0 335 0.0 0.0 0.00 0.00 0.00 1016.9
20260506120733 0 335 0.0 1.0 0.00 0.00 0.00 1016.9
20260506120231 0 335 0.0 0.0 0.00 0.00 0.00 1016.9
20260506115729 0 335 0.0 5.0 0.00 0.00 0.00 1017.0
20260506115227 0 331 0.0 2.0 0.00 0.00 0.00 1016.9
20260506114724 0 335 0.0 3.0 0.00 0.00 0.00 1016.9
20260506114222 0 334 1.0 1.0 0.00 0.00 0.00 1016.8
20260506113720 0 334 0.0 1.0 0.00 0.00 0.00 1016.9
20260506113217 0 327 0.0 0.0 0.00 0.00 0.00 1016.9
20260506112713 0 334 0.0 0.0 0.00 0.00 0.00 1017.0
20260506112211 0 327 0.0 2.0 0.00 0.00 0.00 1016.8
20260506111708 0 304 0.0 0.0 0.00 0.00 0.00 1016.8
20260506111207 0 334 0.0 0.0 0.00 0.00 0.00 1016.6
20260506110703 0 335 0.0 1.0 0.00 0.00 0.00 1016.6
20260506110201 0 335 0.0 0.0 0.00 0.00 0.00 1016.6
20260506105657 0 335 0.0 2.0 0.00 0.00 0.00 1016.5
20260506105154 0 332 0.0 0.0 0.00 0.00 0.00 1016.2
20260506104652 0 335 0.0 0.0 0.00 0.00 0.00 1016.2
20260506104149 0 333 0.0 0.0 0.00 0.00 0.00 1016.2
20260506103646 0 335 0.0 3.0 0.00 0.00 0.00 1016.3
20260506103143 0 330 2.0 2.0 0.00 0.00 0.00 1016.3
20260506102642 0 335 0.0 0.0 0.00 0.00 0.00 1016.2
20260506102139 0 334 0.0 0.0 0.00 0.00 0.00 1016.1
20260506101635 0 335 0.0 0.0 0.00 0.00 0.00 1016.4
20260506101132 0 335 0.0 0.0 0.00 0.00 0.00 1016.4
20260506100631 0 335 0.0 0.0 0.00 0.00 0.00 1016.3
20260506100128 0 330 0.0 2.0 0.00 0.00 0.00 1016.3
20260506095627 0 334 0.0 0.0 0.00 0.00 0.00 1016.4
20260506095123 0 335 0.0 0.0 0.00 0.00 0.00 1016.1
20260506094621 0 334 0.0 0.0 0.00 0.00 0.00 1016.2
20260506094118 0 335 0.0 0.0 0.00 0.00 0.00 1016.3
20260506093616 0 335 0.0 0.0 0.00 0.00 0.00 1015.9
20260506093113 0 335 0.0 0.0 0.00 0.00 0.00 1016.1
20260506092611 0 335 0.0 1.0 0.00 0.00 0.00 1016.2
20260506092108 0 335 0.0 0.0 0.00 0.00 0.00 1016.0
20260506091606 0 335 0.0 2.0 0.00 0.00 0.00 1016.0
20260506091103 0 333 1.0 2.0 0.00 0.00 0.00 1016.1
20260506090601 0 335 0.0 0.0 0.00 0.00 0.00 1016.0
20260506090057 0 334 0.0 0.0 0.00 0.00 0.00 1015.9
20260506085554 0 335 0.0 2.0 0.00 0.00 0.00 1016.0
20260506085050 0 334 0.0 0.0 0.00 0.00 0.00 1015.9
20260506084547 0 328 0.0 3.0 0.00 0.00 0.00 1015.7
20260506084044 0 335 1.0 2.0 0.00 0.00 0.00 1015.7
20260506083541 0 335 0.0 2.0 0.00 0.00 0.00 1015.7
20260506083038 0 335 0.0 2.0 0.00 0.00 0.00 1015.7
20260506082535 0 334 0.0 1.0 0.00 0.00 0.00 1015.8
20260506082031 0 334 1.0 3.0 0.00 0.00 0.00 1015.8
20260506081529 0 324 0.0 1.0 0.00 0.00 0.00 1015.7
20260506081026 0 329 2.0 2.0 0.00 0.00 0.00 1015.7
20260506080524 0 334 0.0 2.0 0.00 0.00 0.00 1015.6
20260506073507 0 334 0.0 0.0 0.00 0.00 0.00 1015.3
20260506073004 0 335 0.0 0.0 0.00 0.00 0.00 1015.3
20260506072501 0 334 0.0 0.0 0.00 0.00 0.00 1015.4
20260506071959 0 335 0.0 0.0 0.00 0.00 0.00 1015.2
20260506071457 0 335 0.0 0.0 0.00 0.00 0.00 1015.1
20260506070953 0 335 0.0 0.0 0.00 0.00 0.00 1015.2
20260506070451 0 335 0.0 0.0 0.00 0.00 0.00 1015.5
20260506062428 0 335 0.0 0.0 0.00 0.00 0.00 1014.8
20260506061924 0 334 1.0 2.0 0.00 0.00 0.00 1014.8
20260506061421 0 335 0.0 1.0 0.00 0.00 0.00 1015.0
20260506060919 0 335 0.0 1.0 0.00 0.00 0.00 1015.0
20260506060417 0 334 0.0 0.0 0.00 0.00 0.00 1015.1
20260506051348 0 335 0.0 0.0 0.00 0.00 0.00 1014.8
20260506050846 0 335 0.0 2.0 0.00 0.00 0.00 1014.8
20260506050343 0 332 0.0 1.0 0.00 0.00 0.00 1014.9
20260506044833 0 335 0.0 0.0 0.00 0.00 0.00 1014.6
20260506044331 0 335 0.0 0.0 0.00 0.00 0.00 1014.6
20260506043828 0 334 0.0 0.0 0.00 0.00 0.00 1014.7
20260506043325 0 334 0.0 0.0 0.00 0.00 0.00 1014.8
20260506042824 0 329 0.0 1.0 0.00 0.00 0.00 1014.6
20260506042322 0 335 0.0 0.0 0.00 0.00 0.00 1014.4
20260506041821 0 335 0.0 0.0 0.00 0.00 0.00 1014.6
20260506041317 0 335 0.0 1.0 0.00 0.00 0.00 1014.4
20260506040815 0 335 0.0 0.0 0.00 0.00 0.00 1014.6
20260506040312 0 335 0.0 1.0 0.00 0.00 0.00 1014.3
20260506035808 0 334 0.0 0.0 0.00 0.00 0.00 1014.2
20260506035306 0 335 0.0 0.0 0.00 0.00 0.00 1014.4
20260506034803 0 335 0.0 0.0 0.00 0.00 0.00 1014.2
20260506034300 0 334 0.0 1.0 0.00 0.00 0.00 1014.2
20260506033756 0 335 0.0 1.0 0.00 0.00 0.00 1014.1
20260506033253 0 324 0.0 2.0 0.00 0.00 0.00 1014.0
20260506032750 0 334 0.0 1.0 0.00 0.00 0.00 1014.1
20260506032247 0 335 0.0 1.0 0.00 0.00 0.00 1014.1
20260506031744 0 335 0.0 0.0 0.00 0.00 0.00 1014.0
20260506031241 0 335 0.0 0.0 0.00 0.00 0.00 1013.9
20260506030739 0 334 0.0 1.0 0.00 0.00 0.00 1013.8
20260506030237 0 332 0.0 1.0 0.00 0.00 0.00 1013.8
20260506025733 0 335 0.0 1.0 0.00 0.00 0.00 1013.7
20260506025230 0 335 0.0 2.0 0.00 0.00 0.00 1013.8
20260506024727 0 335 0.0 1.0 0.00 0.00 0.00 1013.9
20260506024223 0 335 0.0 0.0 0.00 0.00 0.00 1013.7
20260506023720 0 334 0.0 1.0 0.00 0.00 0.00 1013.9
20260506023217 0 335 0.0 0.0 0.00 0.00 0.00 1013.8
20260506022714 0 335 0.0 1.0 0.00 0.00 0.00 1013.7
20260506022212 0 334 1.0 2.0 0.00 0.00 0.00 1013.8
20260506021709 0 334 0.0 0.0 0.00 0.00 0.00 1013.7
20260506021206 0 335 0.0 1.0 0.00 0.00 0.00 1013.7
20260506020703 0 335 0.0 1.0 0.00 0.00 0.00 1013.8
20260506020201 0 334 0.0 1.0 0.00 0.00 0.00 1013.7
20260506015658 0 333 1.0 2.0 0.00 0.00 0.00 1013.7
20260506015156 0 335 1.0 2.0 0.00 0.00 0.00 1013.7
20260506014653 0 334 1.0 2.0 0.00 0.00 0.00 1013.7
20260506014148 0 335 1.0 1.0 0.00 0.00 0.00 1013.8
20260506013646 0 334 2.0 2.0 0.00 0.00 0.00 1013.7
20260506013143 0 335 0.0 1.0 0.00 0.00 0.00 1013.8
20260506012639 0 335 0.0 1.0 0.00 0.00 0.00 1013.7
20260506012136 0 333 0.0 1.0 0.00 0.00 0.00 1013.9
20260506011634 0 331 1.0 2.0 0.00 0.00 0.00 1013.7
20260506011130 0 335 1.0 2.0 0.00 0.00 0.00 1013.8
20260506010629 0 335 0.0 2.0 0.00 0.00 0.00 1013.9
20260506010125 0 334 0.0 2.0 0.00 0.00 0.00 1013.9
20260506005622 0 331 1.0 2.0 0.00 0.00 0.00 1013.7
20260506005118 0 334 1.0 2.0 0.00 0.00 0.00 1013.9
20260506004615 0 328 1.0 2.0 0.00 0.00 0.00 1013.8
20260506004113 0 334 1.0 2.0 0.00 0.00 0.00 1013.9
20260506003609 0 334 0.0 0.0 0.00 0.00 0.00 1013.7
20260506003105 0 332 1.0 2.0 0.00 0.00 0.00 1013.7
20260506002601 0 334 1.0 2.0 0.00 0.00 0.00 1013.7
20260506002057 0 333 2.0 2.0 0.00 0.00 0.00 1013.8
20260506001553 0 304 1.0 2.0 0.00 0.00 0.00 1013.7
20260506001050 0 332 1.0 2.0 0.00 0.00 0.00 1013.6
20260506000548 0 299 3.0 3.0 0.00 0.00 0.00 1013.8
20260506000045 0 329 2.0 2.0 0.00 0.00 0.00 1013.8
20260505235543 0 285 4.0 6.0 0.00 0.00 0.00 1013.9
20260505235040 0 334 3.0 5.0 0.00 0.00 0.00 1014.2
20260505234537 0 334 1.0 2.0 0.00 0.00 0.00 1014.1
20260505234033 0 334 2.0 3.0 0.00 0.00 0.00 1013.9
20260505233531 0 335 2.0 3.0 0.00 0.00 0.00 1014.2
20260505233028 0 334 2.0 3.0 0.00 0.00 0.00 1013.9
20260505232526 0 316 2.0 5.0 0.00 0.00 0.00 1014.1
20260505232023 0 334 2.0 3.0 0.00 0.00 0.00 1014.0
20260505231520 0 334 2.0 3.0 0.00 0.00 0.00 1014.1
20260505231019 0 334 1.0 3.0 0.00 0.00 0.00 1014.0
20260505230516 0 334 1.0 2.0 0.00 0.00 0.00 1014.1
20260505230012 0 334 1.0 2.0 0.00 0.00 0.00 1014.2
20260505225509 0 335 1.0 2.0 0.00 0.00 0.00 1014.5
20260505225005 0 333 1.0 2.0 0.00 0.00 0.00 1014.3
20260505224502 0 334 2.0 2.0 0.00 0.00 0.00 1014.3
20260505223959 0 328 2.0 3.0 0.00 0.00 0.00 1014.4
20260505223456 0 334 1.0 3.0 0.00 0.00 0.00 1014.6
20260505222953 0 333 2.0 2.0 0.00 0.00 0.00 1014.3
20260505222449 0 324 2.0 5.0 0.00 0.00 0.00 1014.3
20260505221944 0 334 1.0 2.0 0.00 0.00 0.00 1014.4
20260505221442 0 333 2.0 3.0 0.00 0.00 0.00 1014.4
20260505220939 0 333 2.0 3.0 0.00 0.00 0.00 1014.3
20260505220436 0 335 2.0 3.0 0.00 0.00 0.00 1014.3
20260505215934 0 335 1.0 1.0 0.00 0.00 0.00 1014.3
20260505215432 0 330 1.0 2.0 0.00 0.00 0.00 1014.5
20260505214929 0 334 1.0 1.0 0.00 0.00 0.00 1014.4
20260505214427 0 331 2.0 2.0 0.00 0.00 0.00 1014.5
20260505213924 0 333 1.0 2.0 0.00 0.00 0.00 1014.3
20260505213422 0 336 1.0 1.0 0.00 0.00 0.00 1014.5
20260505212917 0 333 2.0 2.0 0.00 0.00 0.00 1014.4
20260505212415 0 334 2.0 3.0 0.00 0.00 0.00 1014.4